Showing default

FLOCK 4BE 12, 60560

Orbit data source: Space-Track

FLOCK 4BE 12, 60560 is a payload satellite owned by Planet (US) in SSO that was launched on Fri, 16 Aug 2024 UTC via an FALCON 9 launch vehicle from the Air Force Western Test Range (AFWTR). Payload-class satellites include a variety of spacecraft equipped with specific instruments for various scientific and technological missions. These include communications satellites like Starlink; space stations such as the ISS; scientific satellites like the Hubble; Earth observation satellites from companies like Planet Labs, Umbra, and HawkEye 360; GPS; miniature CubeSats for education and research; and military/defense satellites.

Loading next visibility...
Identifier
60560, 2024-149CW
Orbit
SSO
Country
Flag of USUS
Related business
Manufacturer
Planet
Mission
Operational Commercial Imaging
Bus & Motor
CUBESAT 3U, Unknown motor
Mass
5.7 kg wet, 5.7 kg dry
Launch date (UTC)
2024-08-16 (1 year ago)
Launch vehicle
FALCON 9
Launch site
Air Force Western Test Range (AFWTR)
Object type
Payload
Rocket body
Debris
Shape & HBR
Box + 2 Pan, 1.0 m
Radar Cross Section
0.072 m², Medium (>0.1 m² and < 1m²)

Expand to show TLE details & history
Last TLE update: 23 hours ago

TLE from 23 hours ago
0 FLOCK 4BE 12
1 60560U 24149CW  26034.16630053  .00076244  00000-0  19039-2 0  9993
2 60560  97.3837 117.6827 0004622  43.5313 316.6297 15.39874128 81743
Epoch: 2026-02-03T03:59Z
TLE epoch observation values (Epoch: 2026-02-03T03:59:28.365Z)
Latitude
-0.00005°
Longitude
-75.53662°
Altitude
447.306 km
Speed
7.645 km/s
True Right ascension
07h 50m 43s
True Declination
0° 00' 00"
Sunlit
Object was in full shadow at epoch
Visualization orbit readout
Latitude
Unknown
Longitude
Unknown
Altitude
Unknown
Speed
Unknown
Apparent Right ascension
Unknown
Apparent Declination
Unknown
Sunlit
N/A
Visualization observer readout
Local Sidereal Time
04:27:32
Azimuth
Unknown
Elevation
Unknown
Doppler factor
Unknown
Orbital elements
Apogee altitude
446.573 km
Perigee altitude
440.267 km
Semi-major axis
6,821.557 km
Eccentricity
0.00046
Inclination
97.3837°
RAAN
117.6827°
Arg. of periapsis
43.5313°
True anomaly
316.59331°
Mean anomaly
316.6297°
Eccentric anomaly
316.61151°
Mean motion
3.85228 °/min
Orbital period
93.45 mins
BSTAR
0.0019039
Loading maneuver chart data...
Computing Atmospheric mass density...
Loading historical data...
Loading historical data...
Loading historical data...
Loading historical data...
Loading historical data...
Loading historical data...
Loading historical data...

Documentation

Showing up to 5 results
|